Simultaneous Nadir Overpasses (SNOs) Predictions

Prediction of SNOs between METOP-B and NOAA-19 Satellite Orbit:

Table of predicted SNOs for the next 14.0 days since TLE Epoch: 7/12/2013
Index Date (METOP-B) Time (METOP-B) Lat,Lon (METOP-B) SZA (METOP-B ) Date (NOAA-19) Time (NOAA-19) Lat,Lon (NOAA-19) SZA (NOAA-19 ) Distance(km) Time Diff (sec)
1 07/14/2013 03:24:44 -73.66, -56.96 127.94 07/14/2013 03:23:32 -73.65, -58.15 127.88 37.12 72
2 07/14/2013 04:15:29 73.39, 109.76 51.83 07/14/2013 04:14:24 73.36, 109.79 51.81 3.36 65
3 07/14/2013 05:06:11 -73.39, -82.92 128.17 07/14/2013 05:05:31 -73.38, -83.03 128.17 3.49 40
4 07/14/2013 05:56:52 73.32, 84.26 51.77 07/14/2013 05:56:28 73.34, 84.33 51.80 3.16 24
5 07/14/2013 06:47:34 -73.32,-108.42 128.23 07/14/2013 06:47:34 -73.31,-108.38 128.23 1.43 0
6 07/14/2013 07:38:14 73.30, 58.87 51.76 07/14/2013 07:38:32 73.32, 58.87 51.78 2.16 18
7 07/14/2013 08:28:56 -73.29,-133.81 128.24 07/14/2013 08:29:38 -73.29,-133.84 128.25 1.20 42
8 07/14/2013 09:19:36 73.28, 33.48 51.76 07/14/2013 09:20:36 73.29, 33.40 51.77 3.25 60
9 07/14/2013 10:10:25 -72.92,-159.96 128.56 07/14/2013 10:11:36 -72.97,-158.64 128.59 43.32 71
10 07/24/2013 04:08:10 74.00, 112.95 54.19 07/24/2013 04:07:03 74.03, 110.14 54.37 86.40 67
11 07/24/2013 04:59:04 -73.42, -81.08 126.32 07/24/2013 04:57:57 -73.42, -81.15 126.31 2.39 67
12 07/24/2013 05:49:44 73.37, 86.16 53.65 07/24/2013 05:48:54 73.37, 86.22 53.66 1.89 50
13 07/24/2013 06:40:27 -73.35,-106.58 126.37 07/24/2013 06:40:00 -73.35,-106.50 126.37 2.53 27
14 07/24/2013 07:31:06 73.35, 60.76 53.64 07/24/2013 07:30:58 73.35, 60.75 53.65 0.42 8
15 07/24/2013 08:21:49 -73.32,-131.97 126.38 07/24/2013 08:22:04 -73.32,-131.97 126.38 0.20 15
16 07/24/2013 09:12:28 73.33, 35.37 53.64 07/24/2013 09:13:02 73.33, 35.29 53.63 2.69 34
17 07/24/2013 10:03:11 -73.30,-157.37 126.38 07/24/2013 10:04:08 -73.30,-157.43 126.39 2.15 57
18 07/24/2013 10:53:51 73.25, 9.86 53.59 07/24/2013 10:55:05 73.25, 9.93 53.57 2.19 74




NCC Satellite Simultaneous Nadir Overpasses (SNOs) Prediction Service
